Simultaneous Nadir Overpasses (SNOs) Predictions

Prediction of SNOs between AQUA and GOES-15 Satellite Orbit:

Table of predicted SNOs for the next 14.0 days since TLE Epoch: 6/25/2016
Index Date Time (AQUA) AQUA Lat,Lon GOES-15 Lat,Lon Distance(km) Time Diff (sec)
1 06/25/2016 10:50:06 0.56,-138.59 -0.09,-135.51 350.21 80
2 06/27/2016 10:37:53 -0.07,-135.63 -0.08,-135.52 12.21 80
3 06/29/2016 10:25:40 -0.70,-132.67 -0.08,-135.53 325.10 80
4 06/29/2016 22:47:04 -0.41,-137.86 0.10,-135.51 267.34 80
5 07/01/2016 22:34:51 0.23,-134.90 0.10,-135.51 69.06 80
6 07/03/2016 22:22:38 0.88,-131.94 0.10,-135.50 404.98 80
7 07/04/2016 10:43:53 0.21,-137.10 -0.12,-135.51 180.01 80
8 07/06/2016 10:31:39 -0.38,-134.13 -0.12,-135.50 155.57 80
9 07/06/2016 22:53:04 -0.66,-139.33 0.14,-135.48 437.38 80
10 07/08/2016 10:19:26 -1.04,-131.17 -0.12,-135.49 490.96 80
11 07/08/2016 22:40:50 -0.06,-136.36 0.14,-135.47 101.96 80




NCC Satellite Simultaneous Nadir Overpasses (SNOs) Prediction Service
